Voltar ao catálogo

YAOGAN-30 F

AtivoMilitarVLEO
NORAD 43030·PAYLOAD·🇨🇳 China

Lançado Nov 24, 2017 de Xichang Satellite Launch Center

Loading…

Próximas Passagens (próximas 24 horas)

TLE

AtualizadoSource: Space-Track

Época: Sep 14, 2026, 22:22 UTC

1 43030U 17075C   26257.93220280  .00002145  00000-0  15807-3 0  9994
2 43030  34.9947  83.0403 0001402 118.1141 241.9710 15.03071093480937

Acompanhe YAOGAN-30 F em tempo real com AllMySat

Download on the App Store